Location: Mason Neck State Park
(38.6428°N, 77.1981°W)
Time: 04:27:01
(UTC-04:00)

Cosmos 2278 Rocket - Visible Passes

Search period start: 31 March 2015 00:00
Search period end: 10 April 2015 00:00
Orbit: 839 x 847 km, 71.0° (Epoch: 30 March)

Date Brightness Start Highest point End Pass type
(mag) Time Alt. Az. Time Alt. Az. Time Alt. Az.
31 Mar 4.7 02:51:47 14° N 02:51:47 14° N 02:52:43 10° N visible
01 Apr 4.8 02:37:25 14° N 02:37:25 14° N 02:38:15 10° N visible
02 Apr 4.8 02:23:00 13° N 02:23:00 13° N 02:23:49 10° N visible
03 Apr 4.9 02:08:35 13° N 02:08:35 13° N 02:09:21 10° N visible
04 Apr 4.9 01:54:07 13° N 01:54:07 13° N 01:54:54 10° N visible
05 Apr 4.9 01:39:37 14° N 01:39:37 14° N 01:40:26 10° N visible
06 Apr 4.9 01:25:05 14° N 01:25:05 14° N 01:25:58 10° N visible
07 Apr 4.8 01:10:31 15° N 01:10:31 15° N 01:11:30 10° N visible
08 Apr 4.8 00:55:54 15° N 00:55:54 15° N 00:57:02 10° N visible
09 Apr 4.7 00:41:14 17° N 00:41:14 17° N 00:42:34 10° N visible
